Sierra Vista, AZ

1:59 AM MST on April 29, 2017 (GMT -0700)
Sierra Vista Municipal-Libby Army Air Field

Weather History for KFHU - December, 2013

Change the Weather History Date:

Tuesday, December 3, 2013

  Actual Average Record
Temperature  
Mean Temperature 55 °F -  
Max Temperature 68 °F 60 °F 73 °F (1986)
Min Temperature 42 °F 38 °F 19 °F (1991)
Degree Days  
Heating Degree Days 10    
Growing Degree Days 5 (Base 50)    
Moisture  
Dew Point 23 °F    
Average Humidity 33    
Maximum Humidity 54    
Minimum Humidity 8    
Precipitation  
Precipitation 0.00 in - - ()
Sea Level Pressure  
Sea Level Pressure 29.81 in    
Wind  
Wind Speed 8 mph (South)    
Max Wind Speed 24 mph    
Max Gust Speed 39 mph    
Visibility 10 miles    
Events      
Averages and records for this station are not official NWS values.
T = Trace of Precipitation, MM = Missing Value Source: NWS Daily Summary

Daily Weather History Graph

Daily Weather History Graph

Search for Another Location

Airport or City:

Trip Planner

Search our weather history database for the weather conditions in past years. The results will help you decide how hot, cold, wet, or windy it might be!

Date:

Astronomy

Dec. 03, 2013 Rise Set
Actual Time 7:04 AM MST 5:17 PM MST
Civil Twilight 6:38 AM MST 5:44 PM MST
Nautical Twilight 6:08 AM MST 6:14 PM MST
Astronomical Twilight 5:38 AM MST 6:43 PM MST
Moon 7:39 AM MST (12/3) 6:23 PM MST (12/3)
Length of Visible Light 11h 05m
Length of Day
10h 12m
New Moon, 1% of the Moon is Illuminated
Dec 3
New Moon
Dec 9
First Quarter
Dec 17
Full
Dec 25
Last Quarter
Jan 1
New

Hourly Weather History & Observations

Time (MST) Temp. Windchill Dew Point Humidity Pressure Visibility Wind Dir Wind Speed Gust Speed Precip Events Conditions
12:55 AM 44.6 °F 40.2 °F 15.8 °F 31% 29.87 in 10.0 mi West 8.1 mph - N/A   Partly Cloudy
1:55 AM 44.6 °F - 17.6 °F 34% 29.86 in 10.0 mi Calm Calm - N/A   Partly Cloudy
2:55 AM 42.8 °F 39.3 °F 19.4 °F 39% 29.85 in 10.0 mi SSW 5.8 mph - N/A   Partly Cloudy
3:55 AM 44.6 °F 40.7 °F 17.6 °F 34% 29.82 in 10.0 mi South 6.9 mph - N/A   Partly Cloudy
4:55 AM 44.6 °F 43.1 °F 15.8 °F 31% 29.84 in 10.0 mi SE 3.5 mph - N/A   Scattered Clouds
5:55 AM 44.6 °F 43.1 °F 17.6 °F 34% 29.87 in 10.0 mi Variable 3.5 mph - N/A   Scattered Clouds
6:55 AM 44.6 °F 42.2 °F 17.6 °F 34% 29.88 in 10.0 mi ESE 4.6 mph - N/A   Mostly Cloudy
7:55 AM 48.2 °F - 19.4 °F 32% 29.88 in 10.0 mi SE 3.5 mph - N/A   Mostly Cloudy
8:55 AM 55.4 °F - 15.8 °F 21% 29.87 in 10.0 mi Calm Calm - N/A   Mostly Cloudy
9:55 AM 57.2 °F - 10.4 °F 16% 29.88 in 10.0 mi East 4.6 mph - N/A   Mostly Cloudy
10:55 AM 66.2 °F - 3.2 °F 8% 29.85 in 10.0 mi WSW 15.0 mph 23.0 mph N/A   Mostly Cloudy
11:55 AM 66.2 °F - 14.0 °F 13% 29.82 in 10.0 mi West 18.4 mph 24.2 mph N/A   Mostly Cloudy
12:55 PM 68.0 °F - 23.0 °F 18% 29.78 in 10.0 mi WSW 18.4 mph 27.6 mph N/A   Mostly Cloudy
1:55 PM 68.0 °F - 24.8 °F 20% 29.76 in 10.0 mi SW 17.3 mph 26.5 mph N/A   Mostly Cloudy
6:55 PM 59.0 °F - 39.2 °F 48% 29.77 in 10.0 mi South 9.2 mph - N/A   Scattered Clouds
7:55 PM 57.2 °F - 39.2 °F 51% 29.76 in 10.0 mi SSW 13.8 mph 21.9 mph N/A   Partly Cloudy
8:55 PM 57.2 °F - 39.2 °F 51% 29.75 in 10.0 mi SSE 9.2 mph 17.3 mph N/A   Partly Cloudy
9:55 PM 57.2 °F - 37.4 °F 48% 29.73 in 10.0 mi South 24.2 mph 34.5 mph N/A   Partly Cloudy
10:55 PM 55.4 °F - 37.4 °F 51% 29.71 in 10.0 mi South 24.2 mph 39.1 mph N/A   Partly Cloudy
11:55 PM 55.4 °F - 39.2 °F 54% 29.72 in 10.0 mi South 21.9 mph 33.4 mph N/A   Scattered Clouds